W0KHZ Weather Reports


Display with metric or nautical units.
time (UTC)temp
F
wind
direction
speed
MPH
gust
MPH
rain 1hr
in
rain 24hr
in
rain mn
in
humidity
%
barometer
mb
20260506165029 47 321 2.0 4.0 0.00 0.00 0.00 49 1014.2
20260506164527 46 313 3.0 7.0 0.00 0.00 0.00 50 1014.1
20260506164025 46 312 3.0 10.0 0.00 0.00 0.00 51 1014.2
20260506163523 45 315 2.0 4.0 0.00 0.00 0.00 50 1014.2
20260506163021 45 324 3.0 11.0 0.00 0.00 0.00 52 1014.2
20260506162520 45 283 2.0 10.0 0.00 0.00 0.00 52 1014.3
20260506162018 45 299 1.0 3.0 0.00 0.00 0.00 52 1014.4
20260506161616 45 304 2.0 7.0 0.00 0.00 0.00 51 1014.3
20260506161033 45 281 1.0 6.0 0.00 0.00 0.00 51 1014.3
20260506160612 45 320 2.0 6.0 0.00 0.00 0.00 51 1014.4
20260506160030 45 314 3.0 9.0 0.00 0.00 0.00 50 1014.5
20260506155528 45 287 4.0 9.0 0.00 0.00 0.00 51 1014.3
20260506155026 45 321 4.0 14.0 0.00 0.00 0.00 51 1014.2
20260506154524 45 292 3.0 11.0 0.00 0.00 0.00 52 1014.0
20260506154022 45 298 2.0 6.0 0.00 0.00 0.00 52 1014.2
20260506153521 45 305 3.0 11.0 0.00 0.00 0.00 52 1014.0
20260506153019 45 312 2.0 7.0 0.00 0.00 0.00 52 1014.1
20260506152517 45 308 4.0 13.0 0.00 0.00 0.00 53 1014.0
20260506152034 45 325 3.0 10.0 0.00 0.00 0.00 55 1014.1
20260506151532 44 315 2.0 10.0 0.00 0.00 0.00 56 1014.3
20260506151030 43 313 2.0 4.0 0.00 0.00 0.00 55 1014.3
20260506150528 43 313 2.0 4.0 0.00 0.00 0.00 55 1014.5
20260506150027 43 260 3.0 10.0 0.00 0.00 0.00 54 1014.5
20260506145525 43 315 3.0 10.0 0.00 0.00 0.00 54 1014.6
20260506145023 43 310 3.0 8.0 0.00 0.00 0.00 55 1014.5
20260506144522 43 320 3.0 9.0 0.00 0.00 0.00 55 1014.5
20260506144020 43 289 4.0 13.0 0.00 0.00 0.00 55 1014.5
20260506143518 43 319 2.0 7.0 0.00 0.00 0.00 55 1014.4
20260506143015 43 345 2.0 4.0 0.00 0.00 0.00 55 1014.4
20260506142533 43 325 4.0 14.0 0.00 0.00 0.00 55 1014.4
20260506142032 43 301 5.0 16.0 0.00 0.00 0.00 53 1014.2
20260506141530 43 316 5.0 18.0 0.00 0.00 0.00 54 1014.2
20260506141048 43 319 3.0 11.0 0.00 0.00 0.00 56 1014.1
20260506140546 43 327 2.0 6.0 0.00 0.00 0.00 57 1014.1
20260506140024 43 327 3.0 8.0 0.00 0.00 0.00 57 1013.9
20260506135523 43 321 2.0 8.0 0.00 0.00 0.00 57 1013.8
20260506135021 43 328 3.0 8.0 0.00 0.00 0.00 59 1013.7
20260506134520 42 331 3.0 9.0 0.00 0.00 0.00 59 1013.7
20260506134037 42 327 3.0 10.0 0.00 0.00 0.00 61 1013.7
20260506133534 42 331 1.0 4.0 0.00 0.00 0.00 64 1013.7
20260506133113 41 337 1.0 3.0 0.00 0.00 0.00 65 1013.7
20260506132531 40 303 1.0 4.0 0.00 0.00 0.00 68 1013.6
20260506132109 40 354 1.0 2.0 0.00 0.00 0.00 70 1013.7
20260506131527 39 326 1.0 2.0 0.00 0.00 0.00 71 1013.8
20260506131025 38 333 1.0 6.0 0.00 0.00 0.00 72 1013.8
20260506130544 37 303 1.0 4.0 0.00 0.00 0.00 74 1013.7
20260506130022 36 303 0.0 2.0 0.00 0.00 0.00 75 1013.5
20260506125520 35 298 1.0 4.0 0.00 0.00 0.00 77 1013.4
20260506125018 34 306 1.0 3.0 0.00 0.00 0.00 78 1013.3
20260506124515 33 306 1.0 3.0 0.00 0.00 0.00 79 1013.3
20260506124033 32 0.0 0.0 0.00 0.00 0.00 80 1013.3
20260506123532 32 0.0 0.0 0.00 0.00 0.00 80 1013.4
20260506123030 32 0.0 0.0 0.00 0.00 0.00 81 1013.3
20260506122528 32 0.0 0.0 0.00 0.00 0.00 81 1013.3
20260506122107 31 0.0 0.0 0.00 0.00 0.00 81 1013.1
20260506121525 31 0.0 0.0 0.00 0.00 0.00 81 1013.0
20260506121144 31 0.0 0.0 0.00 0.00 0.00 82 1013.0
20260506120521 30 0.0 0.0 0.00 0.00 0.00 82 1013.0
20260506120020 30 0.0 0.0 0.00 0.00 0.00 82 1012.8
20260506115518 30 0.0 0.0 0.00 0.00 0.00 82 1012.7
20260506115035 30 0.0 0.0 0.00 0.00 0.00 81 1012.8
20260506114533 30 0.0 0.0 0.00 0.00 0.00 81 1012.9
20260506114031 30 0.0 0.0 0.00 0.00 0.00 81 1013.0
20260506113529 30 0.0 0.0 0.00 0.00 0.00 81 1012.9
20260506113028 30 0.0 0.0 0.00 0.00 0.00 81 1012.9
20260506112526 31 0.0 0.0 0.00 0.00 0.00 81 1012.9
20260506112024 31 0.0 0.0 0.00 0.00 0.00 81 1012.7
20260506111522 31 0.0 0.0 0.00 0.00 0.00 81 1012.6
20260506111021 31 0.0 0.0 0.00 0.00 0.00 80 1012.5
20260506110519 32 0.0 0.0 0.00 0.00 0.00 80 1012.4
20260506110037 32 0.0 0.0 0.00 0.00 0.00 80 1012.4
20260506105614 31 0.0 0.0 0.00 0.00 0.00 80 1012.3
20260506105032 31 0.0 0.0 0.00 0.00 0.00 80 1012.2
20260506104531 31 0.0 0.0 0.00 0.00 0.00 80 1012.1
20260506104029 31 0.0 0.0 0.00 0.00 0.00 79 1012.1
20260506103547 31 0.0 0.0 0.00 0.00 0.00 79 1012.0
20260506103025 31 0.0 0.0 0.00 0.00 0.00 79 1012.1
20260506102524 31 0.0 0.0 0.00 0.00 0.00 79 1012.2
20260506102022 31 0.0 0.0 0.00 0.00 0.00 79 1012.2
20260506101521 31 0.0 0.0 0.00 0.00 0.00 79 1012.2
20260506101019 32 0.0 0.0 0.00 0.00 0.00 79 1012.2
20260506100516 32 0.0 0.0 0.00 0.00 0.00 78 1012.1
20260506100034 32 0.0 0.0 0.00 0.00 0.00 79 1012.0
20260506095532 32 0.0 0.0 0.00 0.00 0.00 79 1012.0
20260506095031 32 0.0 0.0 0.00 0.00 0.00 80 1011.9
20260506094529 32 0.0 0.0 0.00 0.00 0.00 79 1011.9
20260506094027 32 0.0 0.0 0.00 0.00 0.00 79 1011.8
20260506093525 32 0.0 0.0 0.00 0.00 0.00 78 1011.7
20260506093023 32 0.0 0.0 0.00 0.00 0.00 78 1011.6
20260506092522 32 0.0 0.0 0.00 0.00 0.00 78 1011.5
20260506092020 32 0.0 0.0 0.00 0.00 0.00 78 1011.5
20260506091518 32 0.0 0.0 0.00 0.00 0.00 79 1011.7
20260506091015 32 0.0 0.0 0.00 0.00 0.00 79 1011.6
20260506090534 32 0.0 0.0 0.00 0.00 0.00 79 1011.5
20260506090032 32 0.0 0.0 0.00 0.00 0.00 78 1011.5
20260506085530 32 0.0 0.0 0.00 0.00 0.00 78 1011.5
20260506085028 33 0.0 0.0 0.00 0.00 0.00 77 1011.4
20260506084527 33 0.0 0.0 0.00 0.00 0.00 77 1011.4
20260506084025 33 0.0 0.0 0.00 0.00 0.00 77 1011.2
20260506083523 33 0.0 0.0 0.00 0.00 0.00 76 1011.2
20260506083021 33 0.0 0.0 0.00 0.00 0.00 76 1011.1
20260506082520 33 0.0 0.0 0.00 0.00 0.00 76 1011.1
20260506082018 33 0.0 0.0 0.00 0.00 0.00 75 1011.2
20260506081535 34 0.0 0.0 0.00 0.00 0.00 76 1011.2
20260506081033 34 0.0 0.0 0.00 0.00 0.00 75 1011.3
20260506080531 34 0.0 0.0 0.00 0.00 0.00 75 1011.2
20260506073019 34 0.0 0.0 0.00 0.00 0.00 73 1011.1
20260506072517 34 0.0 0.0 0.00 0.00 0.00 73 1010.9
20260506072034 34 0.0 0.0 0.00 0.00 0.00 74 1010.9
20260506071533 34 0.0 0.0 0.00 0.00 0.00 74 1010.7
20260506071031 35 0.0 0.0 0.00 0.00 0.00 74 1010.6
20260506070529 35 0.0 0.0 0.00 0.00 0.00 74 1010.6
20260506062032 35 0.0 0.0 0.00 0.00 0.00 74 1010.3
20260506061530 35 0.0 0.0 0.00 0.00 0.00 75 1010.4
20260506061028 35 0.0 0.0 0.00 0.00 0.00 74 1010.5
20260506060527 36 0.0 0.0 0.00 0.00 0.00 73 1010.4
20260506051026 37 0.0 0.0 0.00 0.00 0.00 72 1010.1
20260506050524 37 0.0 0.0 0.00 0.00 0.00 72 1010.1
20260506045040 38 0.0 0.0 0.00 0.00 0.00 69 1009.9
20260506044517 38 300 0.0 2.0 0.00 0.00 0.00 70 1009.9
20260506044034 38 0.0 0.0 0.00 0.00 0.00 70 1009.9
20260506043532 38 0.0 0.0 0.00 0.00 0.00 69 1009.9
20260506043031 38 0.0 0.0 0.00 0.00 0.00 68 1010.0
20260506042529 38 0.0 0.0 0.00 0.00 0.00 69 1009.9
20260506042027 39 299 0.0 1.0 0.00 0.00 0.00 69 1009.9
20260506041525 39 0.0 0.0 0.00 0.00 0.00 69 1009.9
20260506041104 39 0.0 0.0 0.00 0.00 0.00 67 1009.8
20260506040522 40 0.0 0.0 0.00 0.00 0.00 66 1009.9
20260506040020 40 0.0 0.0 0.00 0.00 0.00 67 1009.9
20260506035519 40 300 0.0 1.0 0.00 0.00 0.00 66 1009.9
20260506035016 41 299 0.0 2.0 0.00 0.00 0.00 66 1009.9
20260506034554 41 0.0 0.0 0.00 0.00 0.00 65 1009.8
20260506034032 42 0.0 0.0 0.00 0.00 0.00 61 1009.8
20260506033531 42 0.0 0.0 0.00 0.00 0.00 61 1009.7
20260506033028 42 0.0 0.0 0.00 0.00 0.00 62 1009.7
20260506032527 42 0.0 0.0 0.00 0.00 0.00 63 1009.7
20260506032025 43 292 0.0 1.0 0.00 0.00 0.00 62 1009.7
20260506031523 43 0.0 0.0 0.00 0.00 0.00 61 1009.7
20260506031021 43 292 0.0 1.0 0.00 0.00 0.00 61 1009.8
20260506030519 43 293 0.0 1.0 0.00 0.00 0.00 60 1009.7
20260506030018 43 293 0.0 1.0 0.00 0.00 0.00 61 1009.7
20260506025535 43 292 0.0 1.0 0.00 0.00 0.00 61 1009.7
20260506025052 44 292 0.0 1.0 0.00 0.00 0.00 58 1009.6
20260506024530 44 292 0.0 1.0 0.00 0.00 0.00 59 1009.6
20260506024028 44 0.0 0.0 0.00 0.00 0.00 58 1009.5
20260506023526 44 0.0 0.0 0.00 0.00 0.00 58 1009.5
20260506023025 44 292 0.0 1.0 0.00 0.00 0.00 56 1009.4
20260506022522 44 292 0.0 1.0 0.00 0.00 0.00 55 1009.3
20260506022021 44 0.0 0.0 0.00 0.00 0.00 55 1009.3
20260506021519 44 0.0 0.0 0.00 0.00 0.00 53 1009.2
20260506021017 45 0.0 0.0 0.00 0.00 0.00 53 1009.2
20260506020554 45 0.0 0.0 0.00 0.00 0.00 52 1009.1
20260506020032 45 0.0 0.0 0.00 0.00 0.00 51 1009.0
20260506015550 45 0.0 0.0 0.00 0.00 0.00 51 1009.1
20260506015028 46 0.0 0.0 0.00 0.00 0.00 49 1008.8
20260506014526 46 0.0 0.0 0.00 0.00 0.00 49 1008.8
20260506014044 46 0.0 0.0 0.00 0.00 0.00 47 1008.9
20260506013523 47 0.0 0.0 0.00 0.00 0.00 46 1008.9
20260506013021 47 292 0.0 2.0 0.00 0.00 0.00 45 1008.8
20260506012519 47 292 0.0 6.0 0.00 0.00 0.00 44 1008.8
20260506012017 48 306 0.0 1.0 0.00 0.00 0.00 43 1008.8
20260506011534 48 304 0.0 2.0 0.00 0.00 0.00 43 1008.6
20260506011032 48 297 0.0 1.0 0.00 0.00 0.00 43 1008.7
20260506010530 49 297 0.0 2.0 0.00 0.00 0.00 42 1008.7
20260506010028 49 298 0.0 2.0 0.00 0.00 0.00 42 1008.5
20260506005546 49 308 1.0 3.0 0.00 0.00 0.00 41 1008.5
20260506005024 50 300 2.0 4.0 0.00 0.00 0.00 41 1008.5
20260506004522 50 304 1.0 6.0 0.00 0.00 0.00 41 1008.4
20260506004020 50 320 1.0 2.0 0.00 0.00 0.00 40 1008.4
20260506003518 50 319 1.0 3.0 0.00 0.00 0.00 40 1008.4
20260506003016 50 302 3.0 8.0 0.00 0.00 0.00 41 1008.4
20260506002533 50 279 2.0 6.0 0.00 0.00 0.00 40 1008.3
20260506002051 50 295 1.0 6.0 0.00 0.00 0.00 40 1008.2
20260506001529 50 293 0.0 4.0 0.00 0.00 0.00 40 1008.2
20260506001027 50 302 0.0 1.0 0.00 0.00 0.00 40 1008.2
20260506000525 50 302 1.0 3.0 0.00 0.00 0.00 40 1008.2
20260506000043 50 300 0.0 1.0 0.00 0.00 0.00 39 1008.1
20260505235542 50 296 2.0 6.0 0.00 0.00 0.00 39 1008.1
20260505235020 51 291 1.0 3.0 0.00 0.00 0.00 38 1008.2
20260505234518 51 290 1.0 6.0 0.00 0.00 0.00 38 1008.2
20260505234035 51 311 3.0 11.0 0.00 0.00 0.00 38 1008.2
20260505233533 51 282 2.0 6.0 0.00 0.00 0.00 38 1008.1
20260505233031 51 289 2.0 6.0 0.00 0.00 0.00 38 1008.1
20260505232549 51 316 1.0 3.0 0.00 0.00 0.00 38 1008.1
20260505232028 51 308 2.0 6.0 0.00 0.00 0.00 37 1008.2
20260505231526 51 305 2.0 8.0 0.00 0.00 0.00 38 1008.2
20260505231024 51 294 2.0 7.0 0.00 0.00 0.00 37 1008.1
20260505230522 51 305 2.0 7.0 0.00 0.00 0.00 38 1008.1
20260505230101 51 324 2.0 7.0 0.00 0.00 0.00 38 1008.2
20260505225519 52 305 2.0 4.0 0.00 0.00 0.00 38 1008.2
20260505225016 52 303 2.0 11.0 0.00 0.00 0.00 37 1008.2
20260505224534 52 335 3.0 6.0 0.00 0.00 0.00 37 1008.2
20260505224032 52 304 2.0 6.0 0.00 0.00 0.00 37 1008.3
20260505223530 52 306 3.0 10.0 0.00 0.00 0.00 37 1008.3
20260505223048 52 299 3.0 6.0 0.00 0.00 0.00 37 1008.2
20260505222527 52 293 3.0 7.0 0.00 0.00 0.00 37 1008.2
20260505222025 52 322 2.0 6.0 0.00 0.00 0.00 37 1008.2
20260505221523 52 310 3.0 11.0 0.00 0.00 0.00 37 1008.3
20260505221021 52 292 2.0 6.0 0.00 0.00 0.00 37 1008.0
20260505220520 52 326 1.0 4.0 0.00 0.00 0.00 37 1008.0
20260505220018 52 278 2.0 3.0 0.00 0.00 0.00 36 1008.2
20260505215555 52 314 3.0 8.0 0.00 0.00 0.00 36 1008.3
20260505215032 52 329 3.0 7.0 0.00 0.00 0.00 36 1008.2
20260505214530 52 315 3.0 8.0 0.00 0.00 0.00 36 1008.2
20260505214028 52 303 3.0 13.0 0.00 0.00 0.00 36 1008.2
20260505213526 53 10 2.0 4.0 0.00 0.00 0.00 36 1008.1
20260505213044 53 299 2.0 9.0 0.00 0.00 0.00 36 1008.2
20260505212522 53 309 2.0 7.0 0.00 0.00 0.00 36 1008.2
20260505212020 53 346 3.0 9.0 0.00 0.00 0.00 37 1008.2
20260505211518 53 283 2.0 8.0 0.00 0.00 0.00 36 1008.2
20260505211016 54 327 3.0 9.0 0.00 0.00 0.00 35 1008.2
20260505210553 54 320 3.0 10.0 0.00 0.00 0.00 36 1008.1
20260505210031 54 292 3.0 7.0 0.00 0.00 0.00 35 1008.2
20260505205529 54 260 3.0 7.0 0.00 0.00 0.00 36 1008.3
20260505205028 54 297 3.0 7.0 0.00 0.00 0.00 35 1008.2
20260505204526 54 327 3.0 8.0 0.00 0.00 0.00 35 1008.3
20260505204044 55 243 3.0 11.0 0.00 0.00 0.00 34 1008.4
20260505203522 56 322 3.0 10.0 0.00 0.00 0.00 33 1008.4
20260505203021 56 226 4.0 13.0 0.00 0.00 0.00 35 1008.3
20260505202519 55 307 4.0 11.0 0.00 0.00 0.00 35 1008.3
20260505202017 55 322 4.0 8.0 0.00 0.00 0.00 35 1008.3
20260505201555 55 294 4.0 10.0 0.00 0.00 0.00 33 1008.4
20260505201032 55 308 4.0 21.0 0.00 0.00 0.00 35 1008.3
20260505200531 55 312 4.0 13.0 0.00 0.00 0.00 35 1008.4
20260505200029 55 289 4.0 14.0 0.00 0.00 0.00 36 1008.4
20260505195527 55 259 4.0 15.0 0.00 0.00 0.00 35 1008.4
20260505195025 55 307 3.0 8.0 0.00 0.00 0.00 36 1008.4
20260505194524 54 329 3.0 14.0 0.00 0.00 0.00 35 1008.5
20260505194022 54 290 4.0 10.0 0.00 0.00 0.00 35 1008.5
20260505193520 55 314 4.0 14.0 0.00 0.00 0.00 33 1008.3
20260505193038 56 318 4.0 15.0 0.00 0.00 0.00 34 1008.3
20260505192516 56 294 3.0 11.0 0.00 0.00 0.00 35 1008.4
20260505192034 55 213 5.0 13.0 0.00 0.00 0.00 37 1008.5
20260505191552 54 295 3.0 8.0 0.00 0.00 0.00 37 1008.4
20260505191030 53 317 4.0 13.0 0.00 0.00 0.00 36 1008.5
20260505190548 52 299 5.0 11.0 0.00 0.00 0.00 36 1008.6
20260505190027 52 298 4.0 13.0 0.00 0.00 0.00 35 1008.6
20260505185525 52 291 2.0 10.0 0.00 0.00 0.00 36 1008.6
20260505185023 52 307 4.0 11.0 0.00 0.00 0.00 35 1008.6
20260505184521 53 281 2.0 8.0 0.00 0.00 0.00 36 1008.7
20260505184020 53 274 3.0 9.0 0.00 0.00 0.00 38 1008.7
20260505183518 53 274 3.0 10.0 0.00 0.00 0.00 37 1008.6
20260505183056 53 283 2.0 6.0 0.00 0.00 0.00 38 1008.5
20260505182533 53 301 4.0 10.0 0.00 0.00 0.00 37 1008.5
20260505182032 53 289 2.0 9.0 0.00 0.00 0.00 37 1008.6
20260505181530 53 326 3.0 11.0 0.00 0.00 0.00 36 1008.5
20260505181028 53 317 6.0 14.0 0.00 0.00 0.00 36 1008.6
20260505180546 53 265 4.0 16.0 0.00 0.00 0.00 39 1008.4
20260505180024 52 282 2.0 7.0 0.00 0.00 0.00 39 1008.4
20260505175543 52 318 2.0 7.0 0.00 0.00 0.00 38 1008.5
20260505175021 52 330 4.0 10.0 0.00 0.00 0.00 37 1008.4
20260505174539 52 311 3.0 10.0 0.00 0.00 0.00 37 1008.5
20260505174018 52 309 4.0 15.0 0.00 0.00 0.00 36 1008.5
20260505173529 53 287 4.0 8.0 0.00 0.00 0.00 37 1008.4
20260505173027 53 286 4.0 9.0 0.00 0.00 0.00 37 1008.5
20260505172525 52 308 3.0 9.0 0.00 0.00 0.00 38 1008.6
20260505172024 52 299 4.0 8.0 0.00 0.00 0.00 38 1008.5
20260505171522 52 285 3.0 9.0 0.00 0.00 0.00 37 1008.4
20260505171020 51 299 3.0 9.0 0.00 0.00 0.00 37 1008.5
20260505170519 52 319 5.0 15.0 0.00 0.00 0.00 35 1008.4
20260505170017 52 328 5.0 19.0 0.00 0.00 0.00 36 1008.4
20260505165554 53 310 3.0 9.0 0.00 0.00 0.00 37 1008.4